Flag for Cape Verde Weather past 2 weeks in Santa Maria, Cape Verde

Now
70 °F

Partly sunny.


Feels Like: 70 °F
Forecast: 69 / 80 °F
Wind: 18 mph from Northeast

Location: Sal


UV Index: 10 (Very high)

Visibility: N/A


Pressure: 29.95 "Hg

Humidity: 88%

Dew point: 66 °F

Location of Santa MariaLocation

Historic Weather in Santa Maria

°F

Santa Maria temperature yesterday

Maximum temperature yesterday: 86 °F (at 2:00 PM)
Minimum temperature yesterday: 70 °F (at 12:00 AM)
Average temperature yesterday: 75 °F

Past Weeks' High & Low Weather Summary

 TemperatureHumidityPressure
High86 °F (Apr 19, 2:00 PM)94% (Apr 18, 10:00 PM)30.07 "Hg (Apr 18, 10:00 PM)
Low66 °F (Apr 7, 1:00 AM)33% (Apr 19, 3:00 PM)29.86 "Hg (Apr 18, 2:00 AM)
Average72 °F72%29.97 "Hg
* Reported Apr 5 8:00 AM — Apr 20 5:00 AM, Santa Maria, Weather by CustomWeather, © 2014

Note: Actual official high and low records may vary slightly from our data, if they occured in-between our weather recording intervals... More about our weather records

Advertising

Historic Weather Conditions — Data for Previous 24 hours

 ConditionsComfort  
Time TempWeatherWind HumidityBarometerVisibility
5:00 AM
Apr 20
70 °FPartly sunny.18 mph88%29.95 "HgN/A
4:00 AM70 °FPassing clouds.21 mph88%29.92 "HgN/A
3:00 AM70 °FPassing clouds.24 mph88%29.92 "HgN/A
2:00 AM70 °FPassing clouds.21 mph88%29.95 "HgN/A
1:00 AM70 °FPassing clouds.21 mph88%29.98 "HgN/A
12:00 AM72 °FPassing clouds.22 mph83%29.98 "HgN/A
11:00 PM
Apr 19
72 °FPassing clouds.21 mph83%29.98 "HgN/A
10:00 PM72 °FClear.20 mph83%29.98 "Hg10 mi
9:00 PM72 °FClear.23 mph83%29.98 "Hg10 mi
8:00 PM73 °FClear.22 mph78%29.98 "Hg10 mi
7:00 PM73 °FClear.21 mph74%29.95 "Hg10 mi
6:00 PM75 °FClear.22 mph74%29.95 "Hg10 mi
5:00 PM79 °FPassing clouds.24 mph61%29.95 "HgN/A
4:00 PM81 °FPartly sunny.24 mph54%29.95 "HgN/A
3:00 PM86 °FPartly sunny.21 mph33%29.95 "HgN/A
2:00 PM86 °FPartly sunny.20 mph38%29.95 "HgN/A
1:00 PM84 °FPartly sunny.21 mph40%29.98 "HgN/A
12:00 PM82 °FPartly sunny.21 mph45%30.01 "HgN/A
11:00 AM79 °FPartly sunny.20 mph51%30.01 "HgN/A
10:00 AM77 °FPartly sunny.22 mph61%30.01 "HgN/A
9:00 AM75 °FPartly sunny.20 mph69%30.01 "HgN/A
8:00 AM73 °FScattered clouds.18 mph78%29.98 "HgN/A
7:00 AM70 °FScattered clouds.14 mph88%29.98 "HgN/A
6:00 AM70 °FScattered clouds.16 mph83%29.95 "HgN/A
Weather by CustomWeather, © 2014

See weather overview